Year,Month,Day,Hour,Minute,Value (Times are PST for temperature in C)
2011,08,08,00,00,13.70
2011,08,08,00,01,13.70
2011,08,08,00,02,13.60
2011,08,08,00,03,13.60
2011,08,08,00,04,13.60
2011,08,08,00,05,13.60
2011,08,08,00,06,13.50
2011,08,08,00,07,13.50
2011,08,08,00,08,13.50
2011,08,08,00,09,13.40
2011,08,08,00,10,13.40
2011,08,08,00,11,13.40
2011,08,08,00,12,13.40
2011,08,08,00,13,13.40
2011,08,08,00,14,13.30
2011,08,08,00,15,13.30
2011,08,08,00,16,13.30
2011,08,08,00,17,13.30
2011,08,08,00,18,13.30
2011,08,08,00,19,13.20
2011,08,08,00,20,13.20
2011,08,08,00,21,13.20
2011,08,08,00,22,13.10
2011,08,08,00,23,13.10
2011,08,08,00,24,13.10
2011,08,08,00,25,13.10
2011,08,08,00,26,13.10
2011,08,08,00,27,13.10
2011,08,08,00,28,13.10
2011,08,08,00,29,13.10
2011,08,08,00,30,13.00
2011,08,08,00,31,13.00
2011,08,08,00,32,13.00
2011,08,08,00,33,12.90
2011,08,08,00,34,12.90
2011,08,08,00,35,12.90
2011,08,08,00,36,12.90
2011,08,08,00,37,12.90
2011,08,08,00,38,12.90
2011,08,08,00,39,12.90
2011,08,08,00,40,12.90
2011,08,08,00,41,12.90
2011,08,08,00,42,12.90
2011,08,08,00,43,12.80
2011,08,08,00,44,12.80
2011,08,08,00,45,12.80
2011,08,08,00,46,12.80
2011,08,08,00,47,12.80
2011,08,08,00,48,12.80
2011,08,08,00,49,12.80
2011,08,08,00,50,12.80
2011,08,08,00,51,12.80
2011,08,08,00,52,12.80
2011,08,08,00,53,12.80
2011,08,08,00,54,12.80
2011,08,08,00,55,12.80
2011,08,08,00,56,12.70
2011,08,08,00,57,12.70
2011,08,08,00,58,12.70
2011,08,08,00,59,12.70
2011,08,08,01,00,12.70
2011,08,08,01,01,12.70
2011,08,08,01,02,12.60
2011,08,08,01,03,12.60
2011,08,08,01,04,12.60
2011,08,08,01,05,12.60
2011,08,08,01,06,12.60
2011,08,08,01,07,12.60
2011,08,08,01,08,12.60
2011,08,08,01,09,12.60
2011,08,08,01,10,12.50
2011,08,08,01,11,12.50
2011,08,08,01,12,12.50
2011,08,08,01,13,12.50
2011,08,08,01,14,12.40
2011,08,08,01,15,12.40
2011,08,08,01,16,12.40
2011,08,08,01,17,12.40
2011,08,08,01,18,12.40
2011,08,08,01,19,12.40
2011,08,08,01,20,12.30
2011,08,08,01,21,12.30
2011,08,08,01,22,12.30
2011,08,08,01,23,12.30
2011,08,08,01,24,12.30
2011,08,08,01,25,12.30
2011,08,08,01,26,12.30
2011,08,08,01,27,12.20
2011,08,08,01,28,12.20
2011,08,08,01,29,12.20
2011,08,08,01,30,12.20
2011,08,08,01,31,12.20
2011,08,08,01,32,12.10
2011,08,08,01,33,12.10
2011,08,08,01,34,12.10
2011,08,08,01,35,12.10
2011,08,08,01,36,12.10
2011,08,08,01,37,12.00
2011,08,08,01,38,12.00
2011,08,08,01,39,12.00
2011,08,08,01,40,11.90
2011,08,08,01,41,11.90
2011,08,08,01,42,11.90
2011,08,08,01,43,11.90
2011,08,08,01,44,11.80
2011,08,08,01,45,11.80
2011,08,08,01,46,11.80
2011,08,08,01,47,11.80
2011,08,08,01,48,11.80
2011,08,08,01,49,11.80
2011,08,08,01,50,11.80
2011,08,08,01,51,11.80
2011,08,08,01,52,11.80
2011,08,08,01,53,11.80
2011,08,08,01,54,11.80
2011,08,08,01,55,11.80
2011,08,08,01,56,11.80
2011,08,08,01,57,11.70
2011,08,08,01,58,11.70
2011,08,08,01,59,11.70
2011,08,08,02,00,11.70
2011,08,08,02,01,11.70
2011,08,08,02,02,11.60
2011,08,08,02,03,11.60
2011,08,08,02,04,11.60
2011,08,08,02,05,11.60
2011,08,08,02,06,11.60
2011,08,08,02,07,11.60
2011,08,08,02,08,11.60
2011,08,08,02,09,11.50
2011,08,08,02,10,11.50
2011,08,08,02,11,11.50
2011,08,08,02,12,11.50
2011,08,08,02,13,11.40
2011,08,08,02,14,11.40
2011,08,08,02,15,11.40
2011,08,08,02,16,11.40
2011,08,08,02,17,11.40
2011,08,08,02,18,11.40
2011,08,08,02,19,11.40
2011,08,08,02,20,11.40
2011,08,08,02,21,11.30
2011,08,08,02,22,11.30
2011,08,08,02,23,11.30
2011,08,08,02,24,11.40
2011,08,08,02,25,11.30
2011,08,08,02,26,11.30
2011,08,08,02,27,11.40
2011,08,08,02,28,11.30
2011,08,08,02,29,11.30
2011,08,08,02,30,11.30
2011,08,08,02,31,11.30
2011,08,08,02,32,11.30
2011,08,08,02,33,11.30
2011,08,08,02,34,11.30
2011,08,08,02,35,11.30
2011,08,08,02,36,11.30
2011,08,08,02,37,11.30
2011,08,08,02,38,11.30
2011,08,08,02,39,11.30
2011,08,08,02,40,11.30
2011,08,08,02,41,11.40
2011,08,08,02,42,11.40
2011,08,08,02,43,11.40
2011,08,08,02,44,11.40
2011,08,08,02,45,11.30
2011,08,08,02,46,11.30
2011,08,08,02,47,11.40
2011,08,08,02,48,11.40
2011,08,08,02,49,11.40
2011,08,08,02,50,11.40
2011,08,08,02,51,11.40
2011,08,08,02,52,11.40
2011,08,08,02,53,11.40
2011,08,08,02,54,11.40
2011,08,08,02,55,11.40
2011,08,08,02,56,11.40
2011,08,08,02,57,11.30
2011,08,08,02,58,11.30
2011,08,08,02,59,11.30
2011,08,08,03,00,11.30
2011,08,08,03,01,11.30
2011,08,08,03,02,11.30
2011,08,08,03,03,11.30
2011,08,08,03,04,11.30
2011,08,08,03,05,11.30
2011,08,08,03,06,11.30
2011,08,08,03,07,11.30
2011,08,08,03,08,11.30
2011,08,08,03,09,11.30
2011,08,08,03,10,11.20
2011,08,08,03,11,11.20
2011,08,08,03,12,11.20
2011,08,08,03,13,11.20
2011,08,08,03,14,11.20
2011,08,08,03,15,11.20
2011,08,08,03,16,11.20
2011,08,08,03,17,11.20
2011,08,08,03,18,11.20
2011,08,08,03,19,11.20
2011,08,08,03,20,11.20
2011,08,08,03,21,11.20
2011,08,08,03,22,11.20
2011,08,08,03,23,11.20
2011,08,08,03,24,11.20
2011,08,08,03,25,11.20
2011,08,08,03,26,11.20
2011,08,08,03,27,11.20
2011,08,08,03,28,11.10
2011,08,08,03,29,11.10
2011,08,08,03,30,11.10
2011,08,08,03,31,11.10
2011,08,08,03,32,11.10
2011,08,08,03,33,11.10
2011,08,08,03,34,11.10
2011,08,08,03,35,11.10
2011,08,08,03,36,11.10
2011,08,08,03,37,11.10
2011,08,08,03,38,11.10
2011,08,08,03,39,11.10
2011,08,08,03,40,11.10
2011,08,08,03,41,11.10
2011,08,08,03,42,11.00
2011,08,08,03,43,11.00
2011,08,08,03,44,11.00
2011,08,08,03,45,11.00
2011,08,08,03,46,11.00
2011,08,08,03,47,10.90
2011,08,08,03,48,10.90
2011,08,08,03,49,10.90
2011,08,08,03,50,10.90
2011,08,08,03,51,10.90
2011,08,08,03,52,10.90
2011,08,08,03,53,10.90
2011,08,08,03,54,10.90
2011,08,08,03,55,10.90
2011,08,08,03,56,10.90
2011,08,08,03,57,10.90
2011,08,08,03,58,10.80
2011,08,08,03,59,10.80
2011,08,08,04,00,10.80
2011,08,08,04,01,10.80
2011,08,08,04,02,10.80
2011,08,08,04,03,10.80
2011,08,08,04,04,10.80
2011,08,08,04,05,10.80
2011,08,08,04,06,10.80
2011,08,08,04,07,10.80
2011,08,08,04,08,10.80
2011,08,08,04,09,10.80
2011,08,08,04,10,10.80
2011,08,08,04,11,10.70
2011,08,08,04,12,10.70
2011,08,08,04,13,10.70
2011,08,08,04,14,10.70
2011,08,08,04,15,10.70
2011,08,08,04,16,10.70
2011,08,08,04,17,10.70
2011,08,08,04,18,10.70
2011,08,08,04,19,10.70
2011,08,08,04,20,10.70
2011,08,08,04,21,10.70
2011,08,08,04,22,10.70
2011,08,08,04,23,10.70
2011,08,08,04,24,10.70
2011,08,08,04,25,10.70
2011,08,08,04,26,10.70
2011,08,08,04,27,10.70
2011,08,08,04,28,10.70
2011,08,08,04,29,10.70
2011,08,08,04,30,10.70
2011,08,08,04,31,10.70
2011,08,08,04,32,10.70
2011,08,08,04,33,10.70
2011,08,08,04,34,10.70
2011,08,08,04,35,10.70
2011,08,08,04,36,10.60
2011,08,08,04,37,10.60
2011,08,08,04,38,10.60
2011,08,08,04,39,10.60
2011,08,08,04,40,10.60
2011,08,08,04,41,10.60
2011,08,08,04,42,10.50
2011,08,08,04,43,10.50
2011,08,08,04,44,10.50
2011,08,08,04,45,10.40
2011,08,08,04,46,10.40
2011,08,08,04,47,10.40
2011,08,08,04,48,10.40
2011,08,08,04,49,10.40
2011,08,08,04,50,10.40
2011,08,08,04,51,10.40
2011,08,08,04,52,10.40
2011,08,08,04,53,10.40
2011,08,08,04,54,10.40
2011,08,08,04,55,10.40
2011,08,08,04,56,10.40
2011,08,08,04,57,10.40
2011,08,08,04,58,10.40
2011,08,08,04,59,10.40
2011,08,08,05,00,10.40
2011,08,08,05,01,10.40
2011,08,08,05,02,10.40
2011,08,08,05,03,10.40
2011,08,08,05,04,10.40
2011,08,08,05,05,10.40
2011,08,08,05,06,10.40
2011,08,08,05,07,10.40
2011,08,08,05,08,10.40
2011,08,08,05,09,10.40
2011,08,08,05,10,10.40
2011,08,08,05,11,10.40
2011,08,08,05,12,10.40
2011,08,08,05,13,10.40
2011,08,08,05,14,10.40
2011,08,08,05,15,10.40
2011,08,08,05,16,10.40
2011,08,08,05,17,10.30
2011,08,08,05,18,10.30
2011,08,08,05,19,10.30
2011,08,08,05,20,10.30
2011,08,08,05,21,10.30
2011,08,08,05,22,10.30
2011,08,08,05,23,10.20
2011,08,08,05,24,10.20
2011,08,08,05,25,10.20
2011,08,08,05,26,10.20
2011,08,08,05,27,10.20
2011,08,08,05,28,10.20
2011,08,08,05,29,10.20
2011,08,08,05,30,10.20
2011,08,08,05,31,10.20
2011,08,08,05,32,10.20
2011,08,08,05,33,10.10
2011,08,08,05,34,10.10
2011,08,08,05,35,10.10
2011,08,08,05,36,10.10
2011,08,08,05,37,10.10
2011,08,08,05,38,10.10
2011,08,08,05,39,10.00
2011,08,08,05,40,10.00
2011,08,08,05,41,10.00
2011,08,08,05,42,10.00
2011,08,08,05,43,10.10
2011,08,08,05,44,10.10
2011,08,08,05,45,10.10
2011,08,08,05,46,10.10
2011,08,08,05,47,10.10
2011,08,08,05,48,10.10
2011,08,08,05,49,10.20
2011,08,08,05,50,10.20
2011,08,08,05,51,10.20
2011,08,08,05,52,10.20
2011,08,08,05,53,10.20
2011,08,08,05,54,10.20
2011,08,08,05,55,10.20
2011,08,08,05,56,10.20
2011,08,08,05,57,10.20
2011,08,08,05,58,10.20
2011,08,08,05,59,10.20
2011,08,08,06,00,10.20
2011,08,08,06,01,10.20
2011,08,08,06,02,10.20
2011,08,08,06,03,10.20
2011,08,08,06,04,10.20
2011,08,08,06,05,10.20
2011,08,08,06,06,10.20
2011,08,08,06,07,10.20
2011,08,08,06,08,10.10
2011,08,08,06,09,10.10
2011,08,08,06,10,10.10
2011,08,08,06,11,10.10
2011,08,08,06,12,10.10
2011,08,08,06,13,10.10
2011,08,08,06,14,10.10
2011,08,08,06,15,10.10
2011,08,08,06,16,10.10
2011,08,08,06,17,10.10
2011,08,08,06,18,10.10
2011,08,08,06,19,10.10
2011,08,08,06,20,10.10
2011,08,08,06,21,10.10
2011,08,08,06,22,10.10
2011,08,08,06,23,10.10
2011,08,08,06,24,10.10
2011,08,08,06,25,10.20
2011,08,08,06,26,10.20
2011,08,08,06,27,10.20
2011,08,08,06,28,10.20
2011,08,08,06,29,10.20
2011,08,08,06,30,10.20
2011,08,08,06,31,10.20
2011,08,08,06,32,10.30
2011,08,08,06,33,10.30
2011,08,08,06,34,10.30
2011,08,08,06,35,10.30
2011,08,08,06,36,10.30
2011,08,08,06,37,10.30
2011,08,08,06,38,10.30
2011,08,08,06,39,10.30
2011,08,08,06,40,10.30
2011,08,08,06,41,10.30
2011,08,08,06,42,10.30
2011,08,08,06,43,10.30
2011,08,08,06,44,10.30
2011,08,08,06,45,10.30
2011,08,08,06,46,10.30
2011,08,08,06,47,10.30
2011,08,08,06,48,10.30
2011,08,08,06,49,10.30
2011,08,08,06,50,10.40
2011,08,08,06,51,10.40
2011,08,08,06,52,10.40
2011,08,08,06,53,10.40
2011,08,08,06,54,10.40
2011,08,08,06,55,10.40
2011,08,08,06,56,10.40
2011,08,08,06,57,10.40
2011,08,08,06,58,10.50
2011,08,08,06,59,10.50
2011,08,08,07,00,10.60
2011,08,08,07,01,10.60
2011,08,08,07,02,10.60
2011,08,08,07,03,10.70
2011,08,08,07,04,10.70
2011,08,08,07,05,10.70
2011,08,08,07,06,10.80
2011,08,08,07,07,10.80
2011,08,08,07,08,10.80
2011,08,08,07,09,10.80
2011,08,08,07,10,10.80
2011,08,08,07,11,10.80
2011,08,08,07,12,10.80
2011,08,08,07,13,10.80
2011,08,08,07,14,10.90
2011,08,08,07,15,10.90
2011,08,08,07,16,10.90
2011,08,08,07,17,10.90
2011,08,08,07,18,10.90
2011,08,08,07,19,10.90
2011,08,08,07,20,10.90
2011,08,08,07,21,10.90
2011,08,08,07,22,11.00
2011,08,08,07,23,11.00
2011,08,08,07,24,11.00
2011,08,08,07,25,11.10
2011,08,08,07,26,11.10
2011,08,08,07,27,11.20
2011,08,08,07,28,11.20
2011,08,08,07,29,11.20
2011,08,08,07,30,11.30
2011,08,08,07,31,11.40
2011,08,08,07,32,11.50
2011,08,08,07,33,11.60
2011,08,08,07,34,11.60
2011,08,08,07,35,11.70
2011,08,08,07,36,11.70
2011,08,08,07,37,11.80
2011,08,08,07,38,11.90
2011,08,08,07,39,12.00
2011,08,08,07,40,12.10
2011,08,08,07,41,12.20
2011,08,08,07,42,12.30
2011,08,08,07,43,12.30
2011,08,08,07,44,12.30
2011,08,08,07,45,12.40
2011,08,08,07,46,12.50
2011,08,08,07,47,12.60
2011,08,08,07,48,12.70
2011,08,08,07,49,12.70
2011,08,08,07,50,12.80
2011,08,08,07,51,12.90
2011,08,08,07,52,13.00
2011,08,08,07,53,13.00
2011,08,08,07,54,13.10
2011,08,08,07,55,13.20
2011,08,08,07,56,13.30
2011,08,08,07,57,13.30
2011,08,08,07,58,13.40
2011,08,08,07,59,13.40
2011,08,08,08,00,13.50
2011,08,08,08,01,13.60
2011,08,08,08,02,13.70
2011,08,08,08,03,13.80
2011,08,08,08,04,13.80
2011,08,08,08,05,13.90
2011,08,08,08,06,14.00
2011,08,08,08,07,14.10
2011,08,08,08,08,14.10
2011,08,08,08,09,14.20
2011,08,08,08,10,14.30
2011,08,08,08,11,14.30
2011,08,08,08,12,14.40
2011,08,08,08,13,14.50
2011,08,08,08,14,14.60
2011,08,08,08,15,14.70
2011,08,08,08,16,14.80
2011,08,08,08,17,14.80
2011,08,08,08,18,14.90
2011,08,08,08,19,15.00
2011,08,08,08,20,15.00
2011,08,08,08,21,15.00
2011,08,08,08,22,15.00
2011,08,08,08,23,15.00
2011,08,08,08,24,15.10
2011,08,08,08,25,15.10
2011,08,08,08,26,15.20
2011,08,08,08,27,15.20
2011,08,08,08,28,15.30
2011,08,08,08,29,15.30
2011,08,08,08,30,15.30
2011,08,08,08,31,15.40
2011,08,08,08,32,15.40
2011,08,08,08,33,15.40
2011,08,08,08,34,15.40
2011,08,08,08,35,15.40
2011,08,08,08,36,15.40
2011,08,08,08,37,15.40
2011,08,08,08,38,15.40
2011,08,08,08,39,15.40
2011,08,08,08,40,15.40
2011,08,08,08,41,15.40
2011,08,08,08,42,15.50
2011,08,08,08,43,15.50
2011,08,08,08,44,15.60
2011,08,08,08,45,15.60
2011,08,08,08,46,15.60
2011,08,08,08,47,15.60
2011,08,08,08,48,15.70
2011,08,08,08,49,15.70
2011,08,08,08,50,15.70
2011,08,08,08,51,15.80
2011,08,08,08,52,15.80
2011,08,08,08,53,15.80
2011,08,08,08,54,15.90
2011,08,08,08,55,15.90
2011,08,08,08,56,16.00
2011,08,08,08,57,16.00
2011,08,08,08,58,16.00
2011,08,08,08,59,16.10
2011,08,08,09,00,16.10
2011,08,08,09,01,16.20
2011,08,08,09,02,16.20
2011,08,08,09,03,16.20
2011,08,08,09,04,16.20
2011,08,08,09,05,16.30
2011,08,08,09,06,16.30
2011,08,08,09,07,16.30
2011,08,08,09,08,16.30
2011,08,08,09,09,16.40
2011,08,08,09,10,16.40
2011,08,08,09,11,16.40
2011,08,08,09,12,16.50
2011,08,08,09,13,16.50
2011,08,08,09,14,16.50
2011,08,08,09,15,16.60
2011,08,08,09,16,16.60
2011,08,08,09,17,16.70
2011,08,08,09,18,16.70
2011,08,08,09,19,16.70
2011,08,08,09,20,16.70
2011,08,08,09,21,16.70
2011,08,08,09,22,16.70
2011,08,08,09,23,16.80
2011,08,08,09,24,16.80
2011,08,08,09,25,16.80
2011,08,08,09,26,16.90
2011,08,08,09,27,16.90
2011,08,08,09,28,16.90
2011,08,08,09,29,16.90
2011,08,08,09,30,17.00
2011,08,08,09,31,17.00
2011,08,08,09,32,17.10
2011,08,08,09,33,17.10
2011,08,08,09,34,17.20
2011,08,08,09,35,17.20
2011,08,08,09,36,17.20
2011,08,08,09,37,17.20
2011,08,08,09,38,17.20
2011,08,08,09,39,17.20
2011,08,08,09,40,17.30
2011,08,08,09,41,17.30
2011,08,08,09,42,17.30
2011,08,08,09,43,17.30
2011,08,08,09,44,17.30
2011,08,08,09,45,17.30
2011,08,08,09,46,17.30
2011,08,08,09,47,17.20
2011,08,08,09,48,17.20
2011,08,08,09,49,17.20
2011,08,08,09,50,17.30
2011,08,08,09,51,17.30
2011,08,08,09,52,17.30
2011,08,08,09,53,17.40
2011,08,08,09,54,17.40
2011,08,08,09,55,17.50
2011,08,08,09,56,17.50
2011,08,08,09,57,17.40
2011,08,08,09,58,17.40
2011,08,08,09,59,17.30
2011,08,08,10,00,17.20
2011,08,08,10,01,17.20
2011,08,08,10,02,17.30
2011,08,08,10,03,17.20
2011,08,08,10,04,17.30
2011,08,08,10,05,17.30
2011,08,08,10,06,17.20
2011,08,08,10,07,17.20
2011,08,08,10,08,17.10
2011,08,08,10,09,17.10
2011,08,08,10,10,17.10
2011,08,08,10,11,17.10
2011,08,08,10,12,17.20
2011,08,08,10,13,17.20
2011,08,08,10,14,17.30
2011,08,08,10,15,17.30
2011,08,08,10,16,17.30
2011,08,08,10,17,17.30
2011,08,08,10,18,17.30
2011,08,08,10,19,17.30
2011,08,08,10,20,17.30
2011,08,08,10,21,17.30
2011,08,08,10,22,17.40
2011,08,08,10,23,17.40
2011,08,08,10,24,17.40
2011,08,08,10,25,17.40
2011,08,08,10,26,17.40
2011,08,08,10,27,17.30
2011,08,08,10,28,17.30
2011,08,08,10,29,17.30
2011,08,08,10,30,17.30
2011,08,08,10,31,17.20
2011,08,08,10,32,17.20
2011,08,08,10,33,17.20
2011,08,08,10,34,17.30
2011,08,08,10,35,17.30
2011,08,08,10,36,17.40
2011,08,08,10,37,17.50
2011,08,08,10,38,17.60
2011,08,08,10,39,17.70
2011,08,08,10,40,17.70
2011,08,08,10,41,17.60
2011,08,08,10,42,17.50
2011,08,08,10,43,17.40
2011,08,08,10,44,17.40
2011,08,08,10,45,17.30
2011,08,08,10,46,17.40
2011,08,08,10,47,17.40
2011,08,08,10,48,17.50
2011,08,08,10,49,17.60
2011,08,08,10,50,17.70
2011,08,08,10,51,17.80
2011,08,08,10,52,17.90
2011,08,08,10,53,18.00
2011,08,08,10,54,18.10
2011,08,08,10,55,18.20
2011,08,08,10,56,18.30
2011,08,08,10,57,18.30
2011,08,08,10,58,18.30
2011,08,08,10,59,18.30
2011,08,08,11,00,18.40
2011,08,08,11,01,18.50
2011,08,08,11,02,18.60
2011,08,08,11,03,18.60
2011,08,08,11,04,18.60
2011,08,08,11,05,18.60
2011,08,08,11,06,18.70
2011,08,08,11,07,18.80
2011,08,08,11,08,18.90
2011,08,08,11,09,19.00
2011,08,08,11,10,19.00
2011,08,08,11,11,19.00
2011,08,08,11,12,19.10
2011,08,08,11,13,19.20
2011,08,08,11,14,19.20
2011,08,08,11,15,19.20
2011,08,08,11,16,19.30
2011,08,08,11,17,19.30
2011,08,08,11,18,19.20
2011,08,08,11,19,19.00
2011,08,08,11,20,18.80
2011,08,08,11,21,18.50
2011,08,08,11,22,18.30
2011,08,08,11,23,18.20
2011,08,08,11,24,18.10
2011,08,08,11,25,18.20
2011,08,08,11,26,18.30
2011,08,08,11,27,18.50
2011,08,08,11,28,18.60
2011,08,08,11,29,18.70
2011,08,08,11,30,18.70
2011,08,08,11,31,18.70
2011,08,08,11,32,18.70
2011,08,08,11,33,18.80
2011,08,08,11,34,18.90
2011,08,08,11,35,18.90
2011,08,08,11,36,19.00
2011,08,08,11,37,19.10
2011,08,08,11,38,19.20
2011,08,08,11,39,19.20
2011,08,08,11,40,19.20
2011,08,08,11,41,19.20
2011,08,08,11,42,19.10
2011,08,08,11,43,19.00
2011,08,08,11,44,19.00
2011,08,08,11,45,18.80
2011,08,08,11,46,18.70
2011,08,08,11,47,18.70
2011,08,08,11,48,18.60
2011,08,08,11,49,18.60
2011,08,08,11,50,18.50
2011,08,08,11,51,18.50
2011,08,08,11,52,18.40
2011,08,08,11,53,18.40
2011,08,08,11,54,18.30
2011,08,08,11,55,18.20
2011,08,08,11,56,18.20
2011,08,08,11,57,18.30
2011,08,08,11,58,18.30
2011,08,08,11,59,18.40
2011,08,08,12,00,18.50
2011,08,08,12,01,18.50
2011,08,08,12,02,18.60
2011,08,08,12,03,18.50
2011,08,08,12,04,18.40
2011,08,08,12,05,18.40
2011,08,08,12,06,18.40
2011,08,08,12,07,18.50
2011,08,08,12,08,18.50
2011,08,08,12,09,18.60
2011,08,08,12,10,18.60
2011,08,08,12,11,18.60
2011,08,08,12,12,18.60
2011,08,08,12,13,18.70
2011,08,08,12,14,18.80
2011,08,08,12,15,18.90
2011,08,08,12,16,18.90
2011,08,08,12,17,18.90
2011,08,08,12,18,18.90
2011,08,08,12,19,18.90
2011,08,08,12,20,19.00
2011,08,08,12,21,19.10
2011,08,08,12,22,19.30
2011,08,08,12,23,19.40
2011,08,08,12,24,19.40
2011,08,08,12,25,19.50
2011,08,08,12,26,19.70
2011,08,08,12,27,19.70
2011,08,08,12,28,19.70
2011,08,08,12,29,19.70
2011,08,08,12,30,19.70
2011,08,08,12,31,19.70
2011,08,08,12,32,19.80
2011,08,08,12,33,19.80
2011,08,08,12,34,19.70
2011,08,08,12,35,19.70
2011,08,08,12,36,19.60
2011,08,08,12,37,19.50
2011,08,08,12,38,19.50
2011,08,08,12,39,19.50
2011,08,08,12,40,19.60
2011,08,08,12,41,19.60
2011,08,08,12,42,19.60
2011,08,08,12,43,19.70
2011,08,08,12,44,19.60
2011,08,08,12,45,19.50
2011,08,08,12,46,19.50
2011,08,08,12,47,19.40
2011,08,08,12,48,19.40
2011,08,08,12,49,19.40
2011,08,08,12,50,19.50
2011,08,08,12,51,19.60
2011,08,08,12,52,19.70
2011,08,08,12,53,19.90
2011,08,08,12,54,20.00
2011,08,08,12,55,20.00
2011,08,08,12,56,20.00
2011,08,08,12,57,19.90
2011,08,08,12,58,20.00
2011,08,08,12,59,20.00
2011,08,08,13,00,20.00
2011,08,08,13,01,20.00
2011,08,08,13,02,20.00
2011,08,08,13,03,20.10
2011,08,08,13,04,20.10
2011,08,08,13,05,20.20
2011,08,08,13,06,20.20
2011,08,08,13,07,20.30
2011,08,08,13,08,20.40
2011,08,08,13,09,20.40
2011,08,08,13,10,20.40
2011,08,08,13,11,20.30
2011,08,08,13,12,20.20
2011,08,08,13,13,20.10
2011,08,08,13,14,20.20
2011,08,08,13,15,20.20
2011,08,08,13,16,20.20
2011,08,08,13,17,20.10
2011,08,08,13,18,20.10
2011,08,08,13,19,20.10
2011,08,08,13,20,20.10
2011,08,08,13,21,20.20
2011,08,08,13,22,20.30
2011,08,08,13,23,20.20
2011,08,08,13,24,20.20
2011,08,08,13,25,20.20
2011,08,08,13,26,20.30
2011,08,08,13,27,20.20
2011,08,08,13,28,20.10
2011,08,08,13,29,20.10
2011,08,08,13,30,19.90
2011,08,08,13,31,19.90
2011,08,08,13,32,19.90
2011,08,08,13,33,20.00
2011,08,08,13,34,20.10
2011,08,08,13,35,20.00
2011,08,08,13,36,19.90
2011,08,08,13,37,19.90
2011,08,08,13,38,20.00
2011,08,08,13,39,20.00
2011,08,08,13,40,20.10
2011,08,08,13,41,20.20
2011,08,08,13,42,20.30
2011,08,08,13,43,20.50
2011,08,08,13,44,20.50
2011,08,08,13,45,20.60
2011,08,08,13,46,20.60
2011,08,08,13,47,20.60
2011,08,08,13,48,20.60
2011,08,08,13,49,20.60
2011,08,08,13,50,20.60
2011,08,08,13,51,20.60
2011,08,08,13,52,20.70
2011,08,08,13,53,20.60
2011,08,08,13,54,20.70
2011,08,08,13,55,20.80
2011,08,08,13,56,20.80
2011,08,08,13,57,20.60
2011,08,08,13,58,20.40
2011,08,08,13,59,20.30
2011,08,08,14,00,20.30
2011,08,08,14,01,20.30
2011,08,08,14,02,20.30
2011,08,08,14,03,20.30
2011,08,08,14,04,19.90
2011,08,08,14,05,19.80
2011,08,08,14,06,20.00
2011,08,08,14,07,20.20
2011,08,08,14,08,20.20
2011,08,08,14,09,20.20
2011,08,08,14,10,20.20
2011,08,08,14,11,20.20
2011,08,08,14,12,20.20
2011,08,08,14,13,20.20
2011,08,08,14,14,20.30
2011,08,08,14,15,20.30
2011,08,08,14,16,20.30
2011,08,08,14,17,20.50
2011,08,08,14,18,20.70
2011,08,08,14,19,20.60
2011,08,08,14,20,20.50
2011,08,08,14,21,20.40
2011,08,08,14,22,20.30
2011,08,08,14,23,20.30
2011,08,08,14,24,20.30
2011,08,08,14,25,20.40
2011,08,08,14,26,20.40
2011,08,08,14,27,20.20
2011,08,08,14,28,20.10
2011,08,08,14,29,19.90
2011,08,08,14,30,20.00
2011,08,08,14,31,20.10
2011,08,08,14,32,20.20
2011,08,08,14,33,20.20
2011,08,08,14,34,20.20
2011,08,08,14,35,20.20
2011,08,08,14,36,20.20
2011,08,08,14,37,20.20
2011,08,08,14,38,20.30
2011,08,08,14,39,20.30
2011,08,08,14,40,20.40
2011,08,08,14,41,20.40
2011,08,08,14,42,20.50
2011,08,08,14,43,20.60
2011,08,08,14,44,20.60
2011,08,08,14,45,20.50
2011,08,08,14,46,20.50
2011,08,08,14,47,20.50
2011,08,08,14,48,20.60
2011,08,08,14,49,20.80
2011,08,08,14,50,20.70
2011,08,08,14,51,20.70
2011,08,08,14,52,20.70
2011,08,08,14,53,20.80
2011,08,08,14,54,20.70
2011,08,08,14,55,20.70
2011,08,08,14,56,20.70
2011,08,08,14,57,20.70
2011,08,08,14,58,20.70
2011,08,08,14,59,20.60
2011,08,08,15,00,20.60
2011,08,08,15,01,20.60
2011,08,08,15,02,20.60
2011,08,08,15,03,20.60
2011,08,08,15,04,20.60
2011,08,08,15,05,20.70
2011,08,08,15,06,20.70
2011,08,08,15,07,20.80
2011,08,08,15,08,20.80
2011,08,08,15,09,20.80
2011,08,08,15,10,20.80
2011,08,08,15,11,20.90
2011,08,08,15,12,21.00
2011,08,08,15,13,21.00
2011,08,08,15,14,21.10
2011,08,08,15,15,21.10
2011,08,08,15,16,21.20
2011,08,08,15,17,21.30
2011,08,08,15,18,21.20
2011,08,08,15,19,21.20
2011,08,08,15,20,21.20
2011,08,08,15,21,21.10
2011,08,08,15,22,21.10
2011,08,08,15,23,21.10
2011,08,08,15,24,21.20
2011,08,08,15,25,21.20
2011,08,08,15,26,21.20
2011,08,08,15,27,21.20
2011,08,08,15,28,21.20
2011,08,08,15,29,21.20
2011,08,08,15,30,21.20
2011,08,08,15,31,21.20
2011,08,08,15,32,21.20
2011,08,08,15,33,21.10
2011,08,08,15,34,21.20
2011,08,08,15,35,21.10
2011,08,08,15,36,21.10
2011,08,08,15,37,21.10
2011,08,08,15,38,21.10
2011,08,08,15,39,21.10
2011,08,08,15,40,21.10
2011,08,08,15,41,21.10
2011,08,08,15,42,21.10
2011,08,08,15,43,21.00
2011,08,08,15,44,21.00
2011,08,08,15,45,21.00
2011,08,08,15,46,21.10
2011,08,08,15,47,21.20
2011,08,08,15,48,21.20
2011,08,08,15,49,21.20
2011,08,08,15,50,21.30
2011,08,08,15,51,21.30
2011,08,08,15,52,21.20
2011,08,08,15,53,21.20
2011,08,08,15,54,21.20
2011,08,08,15,55,21.30
2011,08,08,15,56,21.30
2011,08,08,15,57,21.20
2011,08,08,15,58,21.30
2011,08,08,15,59,21.40
2011,08,08,16,00,21.50
2011,08,08,16,01,21.60
2011,08,08,16,02,21.60
2011,08,08,16,03,21.60
2011,08,08,16,04,21.60
2011,08,08,16,05,21.40
2011,08,08,16,06,21.30
2011,08,08,16,07,21.30
2011,08,08,16,08,21.40
2011,08,08,16,09,21.40
2011,08,08,16,10,21.40
2011,08,08,16,11,21.30
2011,08,08,16,12,21.30
2011,08,08,16,13,21.30
2011,08,08,16,14,21.30
2011,08,08,16,15,21.20
2011,08,08,16,16,21.10
2011,08,08,16,17,21.10
2011,08,08,16,18,21.20
2011,08,08,16,19,21.10
2011,08,08,16,20,21.10
2011,08,08,16,21,21.00
2011,08,08,16,22,21.10
2011,08,08,16,23,21.10
2011,08,08,16,24,21.10
2011,08,08,16,25,21.10
2011,08,08,16,26,21.20
2011,08,08,16,27,21.30
2011,08,08,16,28,21.30
2011,08,08,16,29,21.40
2011,08,08,16,30,21.40
2011,08,08,16,31,21.50
2011,08,08,16,32,21.60
2011,08,08,16,33,21.70
2011,08,08,16,34,21.90
2011,08,08,16,35,22.00
2011,08,08,16,36,22.00
2011,08,08,16,37,22.00
2011,08,08,16,38,21.90
2011,08,08,16,39,21.80
2011,08,08,16,40,21.80
2011,08,08,16,41,21.70
2011,08,08,16,42,21.70
2011,08,08,16,43,21.70
2011,08,08,16,44,21.60
2011,08,08,16,45,21.60
2011,08,08,16,46,21.50
2011,08,08,16,47,21.50
2011,08,08,16,48,21.60
2011,08,08,16,49,21.70
2011,08,08,16,50,21.60
2011,08,08,16,51,21.60
2011,08,08,16,52,21.60
2011,08,08,16,53,21.70
2011,08,08,16,54,21.60
2011,08,08,16,55,21.60
2011,08,08,16,56,21.70
2011,08,08,16,57,21.60
2011,08,08,16,58,21.70
2011,08,08,16,59,21.80
2011,08,08,17,00,21.80
2011,08,08,17,01,21.70
2011,08,08,17,02,21.70
2011,08,08,17,03,21.80
2011,08,08,17,04,21.80
2011,08,08,17,05,21.80
2011,08,08,17,06,21.70
2011,08,08,17,07,21.60
2011,08,08,17,08,21.50
2011,08,08,17,09,21.40
2011,08,08,17,10,21.40
2011,08,08,17,11,21.50
2011,08,08,17,12,21.60
2011,08,08,17,13,21.60
2011,08,08,17,14,21.60
2011,08,08,17,15,21.60
2011,08,08,17,16,21.60
2011,08,08,17,17,21.50
2011,08,08,17,18,21.50
2011,08,08,17,19,21.50